Weather History for 78866 - January, 2013

Change the Weather History Date:

Monday, January 7, 2013

  Actual Average Record
Temperature  
Mean Temperature 78 °F -  
Max Temperature 83 °F 81 °F - ()
Min Temperature 74 °F 72 °F - ()
Cooling Degree Days 14    
Growing Degree Days 28 (Base 50)    
Moisture  
Dew Point 68 °F    
Average Humidity 68    
Maximum Humidity 89    
Minimum Humidity 55    
Precipitation  
Precipitation 0.20 in 0.08 in - ()
Sea Level Pressure  
Sea Level Pressure 30.07 in    
Wind  
Wind Speed 15 mph ()    
Max Wind Speed 23 mph    
Max Gust Speed -    
Visibility 7.3 miles    
Events Rain    
T = Trace of Precipitation, MM = Missing Value Source: Averaged Metar Reports

Daily Weather History Graph

Daily Weather History Graph

Search for Another Location

Airport or City:

Trip Planner

Search our weather history database for the weather conditions in past years. The results will help you decide how hot, cold, wet, or windy it might be!

Date:

Astronomy

Jan. 07, 2013 Rise Set
Actual Time 6:45 AM AST 5:52 PM AST
Civil Twilight 6:22 AM AST 6:15 PM AST
Nautical Twilight 5:55 AM AST 6:42 PM AST
Astronomical Twilight 5:28 AM AST 7:09 PM AST
Moon 2:14 AM AST (1/7) 1:52 PM AST (1/7)
Length of Visible Light 11h 53m
Length of Day
11h 06m
Waning Crescent, 23% of the Moon is Illuminated
Jan 7
Waning Crescent
Jan 11
New
Jan 18
First Quarter
Jan 27
Full
Feb 3
Last Quarter

Hourly Weather History & Observations

Time (AST) Temp. Heat Index Dew Point Humidity Pressure Visibility Wind Dir Wind Speed Gust Speed Precip Events Conditions
12:00 AM 75.2 °F - 69.8 °F 83% 30.06 in 4.3 mi East 21.9 mph - N/A Rain Light Rain Showers
1:00 AM 75.2 °F - 69.8 °F 83% 30.06 in 3.7 mi ESE 21.9 mph - N/A Rain Light Rain Showers
2:00 AM 76 °F - 71 °F 82% 30.07 in 5 mi East 16.1 mph - - Rain Light Rain Showers
2:00 AM 75.2 °F - 71.6 °F 89% 30.06 in 5.0 mi East 16.1 mph - N/A Rain Light Rain Showers
3:00 AM 77.0 °F - 69.8 °F 78% 30.04 in 6.2 mi East 23.0 mph - N/A   Scattered Clouds
4:00 AM 77.0 °F - 68.0 °F 74% 30.04 in 6.2 mi East 16.1 mph - N/A   Partly Cloudy
5:00 AM 78 °F - 66 °F 57% 30.06 in 19 mi ESE 18.4 mph - -   Scattered Clouds
5:00 AM 77.0 °F - 66.2 °F 69% 30.04 in 6.2 mi East 19.6 mph - N/A   Partly Cloudy
6:00 AM 77.0 °F - 66.2 °F 69% 30.06 in 6.2 mi East 15.0 mph - N/A   Partly Cloudy
7:00 AM 78.8 °F - 66.2 °F 65% 30.06 in 6.2 mi East 12.7 mph - N/A   Scattered Clouds
8:00 AM 79 °F - 67 °F 58% 30.12 in 25 mi East 17.3 mph - -   Partly Cloudy
8:00 AM 78.8 °F - 66.2 °F 65% 30.09 in 6.2 mi East 15.0 mph - N/A   Partly Cloudy
9:00 AM 80.6 °F 83.2 °F 68.0 °F 65% 30.12 in 6.2 mi East 13.8 mph - N/A   Scattered Clouds
10:00 AM 82.4 °F 85.4 °F 68.0 °F 62% 30.12 in 6.2 mi East 13.8 mph - N/A   Scattered Clouds
11:00 AM 82 °F - 69 °F 55% 30.12 in 19 mi ESE 17.3 mph - -   Partly Cloudy
11:00 AM 82.4 °F 85.4 °F 68.0 °F 62% 30.09 in 6.2 mi East 17.3 mph - N/A   Scattered Clouds
12:00 PM 82.4 °F 85.4 °F 68.0 °F 62% 30.09 in 6.2 mi East 16.1 mph - N/A   Scattered Clouds
1:00 PM 82.4 °F 85.4 °F 68.0 °F 62% 30.06 in 6.2 mi East 13.8 mph - N/A   Scattered Clouds
2:00 PM 82 °F - 70 °F 59% 30.05 in 34 mi East 13.8 mph - -   Mostly Cloudy
2:00 PM 82.4 °F 86.3 °F 69.8 °F 66% 30.04 in 6.2 mi East 13.8 mph - N/A   Mostly Cloudy
3:00 PM 82.4 °F 86.3 °F 69.8 °F 66% 30.04 in 6.2 mi East 16.1 mph - N/A   Mostly Cloudy
4:00 PM 82.4 °F 85.4 °F 68.0 °F 62% 30.04 in 6.2 mi East 15.0 mph - N/A   Scattered Clouds
5:00 PM 80.6 °F 83.2 °F 68.0 °F 65% 30.04 in 6.2 mi East 17.3 mph - N/A   Scattered Clouds
6:00 PM 78.8 °F - 66.2 °F 65% 30.06 in 6.2 mi East 15.0 mph - N/A   Scattered Clouds
7:00 PM 78.8 °F - 68.0 °F 69% 30.06 in 6.2 mi East 17.3 mph - N/A   Scattered Clouds
8:00 PM 79 °F - 68 °F 61% 30.10 in 25 mi East 16.1 mph - -   Partly Cloudy
8:00 PM 78.8 °F - 68.0 °F 69% 30.09 in 6.2 mi East 16.1 mph - N/A   Scattered Clouds
9:00 PM 78.8 °F - 69.8 °F 74% 30.09 in 6.2 mi East 12.7 mph - N/A   Partly Cloudy
10:00 PM 78.8 °F - 69.8 °F 74% 30.09 in 6.2 mi East 13.8 mph - N/A   Scattered Clouds
11:00 PM 78 °F - 69 °F 68% 30.11 in 19 mi East 13.8 mph - -   Partly Cloudy
11:00 PM 78.8 °F - 69.8 °F 74% 30.09 in 6.2 mi East 13.8 mph - N/A   Scattered Clouds